EW3302 Weather Reports


Display with metric or nautical units.
time (UTC)temp
F
wind
direction
speed
MPH
gust
MPH
rain 1hr
in
rain 24hr
in
rain mn
in
humidity
%
barometer
mb
20260831041516 57 0.0 0.0 0.01 0.07 0.07 96 1002.3
20260831040516 57 0.0 0.0 0.00 0.06 0.06 96 1002.2
20260831035536 57 0.0 1.0 0.00 0.06 0.06 96 1002.1
20260831034516 57 0.0 0.0 0.00 0.06 0.06 96 1002.1
20260831033516 57 0.0 0.0 0.00 0.06 0.06 96 1002.0
20260831032516 57 0.0 1.0 0.01 0.06 0.06 96 1001.9
20260831031516 57 0.0 0.0 0.02 0.06 0.06 96 1002.0
20260831030516 57 0.0 0.0 0.02 0.06 0.06 96 1002.0
20260831025536 57 0.0 0.0 0.02 0.06 0.06 96 1002.0
20260831024516 57 0.0 1.0 0.03 0.06 0.06 96 1002.0
20260831023516 57 0.0 0.0 0.04 0.06 0.06 96 1002.0
20260831022516 57 0.0 0.0 0.04 0.06 0.06 96 1002.0
20260831021536 57 0.0 1.0 0.03 0.05 0.05 96 1002.0
20260831020536 57 0.0 2.0 0.02 0.04 0.04 96 1002.1
20260831015516 57 0.0 2.0 0.02 0.04 0.04 96 1002.1
20260831014516 57 180 1.0 2.0 0.02 0.03 0.03 95 1002.0
20260831013516 57 0.0 0.0 0.02 0.03 0.02 96 1002.0
20260831012516 57 0.0 0.0 0.02 0.02 0.02 95 1002.0
20260831011516 57 0.0 0.0 0.02 0.02 0.02 96 1002.1
20260831010516 57 0.0 0.0 0.02 0.02 0.02 95 1002.1
20260831005516 57 0.0 1.0 0.02 0.02 0.02 95 1002.1
20260831004516 57 0.0 0.0 0.01 0.02 0.01 95 1002.2
20260831003516 57 0.0 0.0 0.01 0.02 0.01 95 1002.2
20260831002516 57 180 1.0 2.0 0.00 0.01 0.00 95 1002.2
20260831001516 57 180 1.0 2.0 0.00 0.01 0.00 95 1002.1
20260831000516 57 0.0 1.0 0.00 0.01 0.00 95 1002.2
20260830235516 57 0.0 0.0 0.00 0.01 0.00 95 1002.2
20260830234516 57 0.0 1.0 0.00 0.01 0.00 95 1002.2
20260830233516 57 0.0 0.0 0.00 0.01 0.00 95 1002.2
20260830232516 57 0.0 1.0 0.00 0.02 0.00 95 1002.2
20260830231516 57 0.0 0.0 0.00 0.02 0.00 95 1002.2
20260830230516 57 0.0 1.0 0.00 0.02 0.00 95 1002.1
20260830225516 57 0.0 1.0 0.00 0.02 0.00 95 1002.1
20260830224516 57 0.0 1.0 0.00 0.02 0.00 95 1002.1
20260830223536 57 0.0 2.0 0.00 0.02 0.00 95 1002.0
20260830222516 57 0.0 1.0 0.00 0.02 0.00 95 1002.0
20260830221516 57 0.0 0.0 0.00 0.02 0.00 94 1002.0
20260830220516 57 0.0 1.0 0.00 0.02 0.00 94 1002.0
20260830215517 57 158 1.0 2.0 0.00 0.02 0.02 94 1001.9
20260830214517 57 0.0 1.0 0.00 0.02 0.02 94 1001.9
20260830213517 57 0.0 1.0 0.00 0.02 0.02 94 1001.9
20260830212518 57 0.0 0.0 0.00 0.02 0.02 93 1001.9
20260830211517 57 158 1.0 2.0 0.00 0.02 0.02 93 1001.9
20260830210517 57 0.0 1.0 0.00 0.02 0.02 93 1002.0
20260830205517 57 0.0 2.0 0.00 0.02 0.02 92 1002.0
20260830204517 57 0.0 1.0 0.00 0.02 0.02 92 1002.0
20260830203517 58 158 1.0 2.0 0.00 0.02 0.02 91 1001.9
20260830202537 58 158 1.0 2.0 0.00 0.02 0.02 91 1002.0
20260830201537 59 158 1.0 2.0 0.00 0.02 0.02 91 1002.0
20260830200517 59 158 1.0 2.0 0.00 0.02 0.02 90 1002.0
20260830195517 60 158 1.0 2.0 0.00 0.02 0.02 89 1002.0
20260830194537 60 180 1.0 2.0 0.00 0.02 0.02 89 1001.9
20260830193517 60 158 1.0 2.0 0.00 0.02 0.02 88 1001.9
20260830192517 61 113 1.0 2.0 0.00 0.02 0.02 88 1001.9
20260830191517 61 135 2.0 4.0 0.00 0.02 0.02 88 1002.0
20260830190537 61 158 2.0 4.0 0.00 0.02 0.02 88 1002.0
20260830185517 61 135 2.0 3.0 0.00 0.02 0.02 87 1001.9
20260830184517 61 135 2.0 4.0 0.00 0.02 0.02 87 1002.0
20260830183517 62 135 2.0 4.0 0.00 0.02 0.02 85 1002.0
20260830182517 63 158 2.0 4.0 0.00 0.02 0.02 84 1002.0
20260830181537 63 135 3.0 5.0 0.00 0.02 0.02 84 1001.9
20260830180517 63 135 3.0 5.0 0.00 0.02 0.02 83 1001.9
20260830175517 64 135 2.0 5.0 0.00 0.02 0.02 82 1001.9
20260830174517 64 135 2.0 5.0 0.00 0.02 0.02 81 1001.8
20260830173517 65 135 4.0 6.0 0.00 0.02 0.02 80 1001.8
20260830172537 65 135 4.0 8.0 0.00 0.02 0.02 80 1001.8
20260830171517 65 135 4.0 7.0 0.00 0.02 0.02 79 1001.7
20260830170537 65 135 4.0 8.0 0.00 0.02 0.02 78 1001.6
20260830165537 65 135 4.0 9.0 0.00 0.02 0.02 77 1001.7
20260830164517 66 135 5.0 9.0 0.00 0.02 0.02 76 1001.6
20260830163517 66 135 4.0 9.0 0.00 0.02 0.02 75 1001.6
20260830162517 66 113 5.0 8.0 0.00 0.02 0.02 75 1001.5
20260830161537 67 113 3.0 4.0 0.00 0.02 0.02 73 1001.5
20260830160517 67 203 2.0 5.0 0.00 0.02 0.02 72 1001.6
20260830155517 67 203 3.0 5.0 0.00 0.02 0.02 73 1001.7
20260830154517 67 180 3.0 8.0 0.00 0.02 0.02 73 1001.7
20260830153517 66 225 3.0 9.0 0.00 0.02 0.02 73 1001.6
20260830152517 66 135 3.0 6.0 0.00 0.02 0.02 75 1001.7
20260830151517 67 180 3.0 7.0 0.00 0.02 0.02 74 1001.8
20260830150517 66 203 1.0 3.0 0.00 0.02 0.02 75 1001.9
20260830145517 66 225 2.0 4.0 0.00 0.02 0.02 77 1001.9
20260830144517 66 180 3.0 9.0 0.00 0.02 0.02 78 1002.0
20260830143517 66 203 4.0 7.0 0.00 0.02 0.02 76 1002.1
20260830142517 66 180 3.0 9.0 0.00 0.02 0.02 78 1002.1
20260830141538 65 203 1.0 4.0 0.00 0.02 0.02 80 1002.1
20260830140537 65 180 1.0 3.0 0.00 0.02 0.02 82 1002.2
20260830135517 64 203 1.0 4.0 0.00 0.02 0.02 81 1002.1
20260830134537 64 248 2.0 4.0 0.00 0.02 0.02 81 1002.2
20260830133517 64 180 3.0 6.0 0.00 0.02 0.02 82 1002.2
20260830132517 63 248 1.0 3.0 0.00 0.02 0.02 84 1002.3
20260830131517 63 180 3.0 6.0 0.00 0.02 0.02 83 1002.2
20260830130517 64 248 4.0 8.0 0.00 0.02 0.02 82 1002.2
20260830125517 64 180 4.0 10.0 0.00 0.02 0.02 80 1002.2
20260830124537 64 203 5.0 9.0 0.00 0.02 0.02 79 1002.1
20260830123517 65 180 5.0 11.0 0.00 0.02 0.02 79 1002.1
20260830122517 64 158 7.0 12.0 0.00 0.02 0.02 80 1002.2
20260830121517 64 180 7.0 14.0 0.00 0.02 0.02 80 1002.2
20260830120517 63 180 5.0 10.0 0.00 0.02 0.02 82 1002.2
20260830115517 63 203 8.0 15.0 0.00 0.02 0.02 80 1002.3
20260830114517 64 180 5.0 11.0 0.00 0.02 0.02 80 1002.2
20260830113516 64 180 5.0 10.0 0.00 0.02 0.02 80 1002.2
20260830112537 64 180 9.0 14.0 0.00 0.02 0.02 80 1002.3
20260830111517 63 180 5.0 12.0 0.00 0.02 0.02 82 1002.2
20260830110517 64 180 8.0 19.0 0.00 0.02 0.02 82 1002.3
20260830105517 64 180 6.0 14.0 0.00 0.02 0.02 81 1002.2
20260830104537 64 180 6.0 13.0 0.00 0.02 0.02 80 1002.1
20260830103517 65 180 7.0 12.0 0.00 0.02 0.02 78 1002.1
20260830102516 65 180 4.0 7.0 0.00 0.02 0.02 80 1002.1
20260830101517 65 135 5.0 9.0 0.00 0.02 0.02 80 1002.2
20260830100517 64 180 5.0 12.0 0.00 0.02 0.02 80 1002.1
20260830095536 64 135 5.0 11.0 0.00 0.02 0.02 83 1002.1
20260830094517 63 135 5.0 8.0 0.00 0.02 0.02 85 1002.1
20260830093517 63 180 2.0 7.0 0.00 0.02 0.02 86 1002.1
20260830092517 62 113 2.0 5.0 0.00 0.02 0.02 86 1002.2
20260830091517 61 113 3.0 5.0 0.00 0.02 0.02 86 1002.1
20260830090517 61 203 4.0 8.0 0.00 0.02 0.02 86 1002.2
20260830085517 61 203 5.0 10.0 0.00 0.02 0.02 86 1002.1
20260830084517 61 180 6.0 12.0 0.00 0.02 0.02 86 1002.1
20260830083516 61 180 7.0 14.0 0.00 0.02 0.02 85 1002.2
20260830082537 61 158 7.0 12.0 0.00 0.02 0.02 85 1002.1
20260830081517 61 135 4.0 8.0 0.00 0.02 0.02 85 1002.0
20260830080516 61 158 4.0 7.0 0.00 0.02 0.02 84 1001.9
20260830075537 61 158 4.0 9.0 0.00 0.02 0.02 85 1002.0
20260830074517 61 113 3.0 6.0 0.00 0.02 0.02 85 1002.0
20260830073537 61 203 2.0 6.0 0.00 0.02 0.02 86 1002.0
20260830072517 61 158 3.0 5.0 0.00 0.02 0.02 86 1002.0
20260830071516 61 135 3.0 6.0 0.00 0.02 0.02 87 1002.0
20260830070517 60 113 3.0 5.0 0.00 0.02 0.02 88 1001.9
20260830065537 60 113 4.0 8.0 0.00 0.02 0.02 88 1001.9
20260830064517 60 180 3.0 6.0 0.00 0.02 0.02 88 1001.9
20260830063516 60 158 3.0 5.0 0.00 0.02 0.02 88 1001.9
20260830062516 60 158 4.0 7.0 0.00 0.02 0.02 87 1001.9
20260830061557 60 180 4.0 8.0 0.00 0.02 0.02 88 1001.9
20260830060617 60 180 2.0 5.0 0.00 0.02 0.02 89 1001.9
20260830055516 60 203 3.0 5.0 0.00 0.03 0.02 89 1001.9
20260830054517 59 180 4.0 7.0 0.00 0.04 0.02 89 1001.9
20260830053517 59 158 4.0 7.0 0.00 0.06 0.02 90 1001.8
20260830052537 59 180 2.0 4.0 0.00 0.06 0.02 93 1001.9
20260830051517 58 158 2.0 5.0 0.00 0.06 0.02 93 1001.8
20260830050516 58 113 3.0 7.0 0.00 0.06 0.02 93 1001.8
20260830045516 58 113 2.0 5.0 0.00 0.06 0.02 93 1001.8
20260830044516 57 135 2.0 5.0 0.00 0.07 0.02 93 1001.8
20260830043517 57 135 2.0 5.0 0.00 0.09 0.02 93 1001.7
20260830042517 57 135 1.0 3.0 0.00 0.09 0.02 92 1001.7